"Pseudo-MPEC" for P10NLQS

Created 2019 May 24 15:07:18 UT using Find_Orb

Click here for an explanation of pseudo-MPECs

 
 Astrometry: 
     P10NLQS  C2019 05 09`O(8Vv\A$)^w3pT`NDO-W+@S-b-gQtkl#s^YIu!N$9%kc3,7X[y5F51
     P10NLQS  C2019 05 09@sBN5)oAW`3Z3q:6loJbCp%WVpikoX2BT:X]cy:#ftj7h^7EbShXF51
     P10NLQS  C2019 05 09XyhOBZxAstrometryTFA.`Sk#R_r4p/VvmnuVGdh=W/`k-n7(#Q[F51
     P10NLQS KC2019 05 11HTg.Z_v*oRZFVredacted;rHt;(7L7Q=x.'#_bKmP3'i/1^E!b!MH21
     P10NLQS KC2019 05 11dOBlAclickn]Le\LM=OfYUYch`SRK7nql0LtuAwe%hereI*;vXXKH21
     P10NLQS KC2019 05 11D7X!I.UDEIolYAf.w\PtG/DRJtd\E.M@()_6^]6-R(@MH)%*3S,vH21
     P10NLQS ^C2019 05 15Q^FK\qford/Q+8ZD('%3y:\?-os9k$QkP-'!q7R)fe^'^=n^p/aS695
     P10NLQS ^C2019 05 15(H!;HZFm0Su1$2=[o][ZA=^1W.tra#tX5f85YBTgF@*[iA=$b4vy695
     P10NLQS ^C2019 05 15S/t%JwyhUhTHexplanation#hJEB8F=v',x0Z2-[2:D`@n]?7l.E695
     P10NLQS ^C2019 05 24ne3?e011M-l3KEx,1+ACye]?3t9$g!J[f7T+GeNscbx.:*?y%=xD695
     P10NLQS ^C2019 05 24rXOe6f`Q,x`8yK.NxKjwY^[S];J[_$-=Sr.I8n!EF;7fE(?qLp*0695
     P10NLQS ^C2019 05 24+7mFaN,f6#s.1CGxF9]Y\.x-ZHlDT)7k@`1Vd^du'1UYW6rn,Q%^695

Station data:
(695) Kitt Peak  (N31.958398 W111.594670)  US/Arizona.
(F51) Pan-STARRS 1, Haleakala  (N20.707235 W156.255910)  US/Hawaii.
   Observers N. Primak, A. Schultz, S. Watters, J. Thiel, T. Goggia. Measurer
   PS1 Science Consortium. 1.8-m Ritchey-Chrétien + CCD.
(H21) Astronomical Research Observatory, Westfield  (N39.483057 W87.968270)
   US/Illinois. 0.76-m f/3.0 astrograph + CCD.

Orbital elements:  P10NLQS
   Perihelion 2019 Apr 4.000593 +/- 0.00467 TT =  0:00:51 (JD 2458577.500593)
Epoch 2019 May 24.0 TT = JDT 2458627.5   Earth MOID: 0.0490   AutoNEOCP
M  31.82622784 +/- 0.038            (J2000 ecliptic)
n   0.63653210 +/- 0.000724         Peri.  349.55870 +/- 0.008
a   1.33841000 +/- 0.00102          Node   204.56763 +/- 0.006
e   0.2159801 +/- 0.000538          Incl.    6.75881 +/- 0.013
P   1.55/565.55d           H 25.9   G  0.15   U  7.9  
q 1.04934005 +/- 7.85e-5    Q 1.62747996 +/- 0.00196
From 12 observations 2019 May 9-24; mean residual 0".13
Residuals in arcseconds: 
190509 F51  .04+  .05-    190511 H21  .04+  .01-    190515 695  .08+  .08+    
190509 F51  .11+  .22+    190511 H21  .35-  .04-    190524 695  .11+  .27-    
190509 F51  .07+  .13-    190515 695  .07-  .07-    190524 695  .08-  .22+    
190511 H21  .05-  .06-    190515 695  .14+  .11+    190524 695  .05-  .01+    

Ephemerides (geocentric):
Date (UTC) HH   RA              Dec         delta   r     elong  mag " sig PA
---- -- -- --  -------------   -----------  ------ ------ -----  --- ---- ---
2019 05 24 15  16 34 12.587   +17 18 42.27  .13086 1.1177 141.2 23.2 .136 111
2019 05 24 16  16 34 14.027   +17 18 40.76  .13097 1.1178 141.2 23.2 .138 112
2019 05 24 17  16 34 15.461   +17 18 39.14  .13109 1.1179 141.2 23.2 .140 114
2019 05 24 18  16 34 16.892   +17 18 37.39  .13121 1.1180 141.2 23.2 .142 115
2019 05 24 19  16 34 18.317   +17 18 35.52  .13132 1.1181 141.2 23.2 .145 116
2019 05 24 20  16 34 19.738   +17 18 33.53  .13144 1.1182 141.2 23.2 .147 118
2019 05 24 21  16 34 21.155   +17 18 31.43  .13156 1.1183 141.2 23.2 .150 119
2019 05 24 22  16 34 22.567   +17 18 29.20  .13167 1.1184 141.2 23.2 .152 121
2019 05 24 23  16 34 23.975   +17 18 26.85  .13179 1.1185 141.2 23.2 .155 122
2019 05 25 00  16 34 25.378   +17 18 24.39  .13191 1.1186 141.2 23.2 .158 123
2019 05 25 01  16 34 26.777   +17 18 21.81  .13202 1.1187 141.2 23.2 .160 124
2019 05 25 02  16 34 28.171   +17 18 19.10  .13214 1.1188 141.2 23.2 .163 125
2019 05 25 03  16 34 29.561   +17 18 16.28  .13226 1.1189 141.2 23.2 .166 127
2019 05 25 04  16 34 30.946   +17 18 13.35  .13237 1.1190 141.2 23.2 .169 128
2019 05 25 05  16 34 32.327   +17 18 10.29  .13249 1.1191 141.2 23.2 .173 129
2019 05 25 06  16 34 33.704   +17 18 07.12  .13261 1.1192 141.2 23.2 .176 130
2019 05 25 07  16 34 35.077   +17 18 03.83  .13273 1.1193 141.2 23.2 .179 131
2019 05 25 08  16 34 36.445   +17 18 00.42  .13284 1.1194 141.2 23.2 .182 132
2019 05 25 09  16 34 37.808   +17 17 56.89  .13296 1.1195 141.2 23.2 .186 133
2019 05 25 10  16 34 39.168   +17 17 53.25  .13308 1.1196 141.2 23.2 .189 134
2019 05 25 11  16 34 40.523   +17 17 49.49  .13320 1.1197 141.2 23.2 .193 135
2019 05 25 12  16 34 41.874   +17 17 45.61  .13331 1.1198 141.2 23.2 .197 136
2019 05 25 13  16 34 43.221   +17 17 41.62  .13343 1.1200 141.2 23.2 .200 136
2019 05 25 14  16 34 44.563   +17 17 37.51  .13355 1.1201 141.2 23.2 .204 137
2019 05 25 15  16 34 45.901   +17 17 33.29  .13367 1.1202 141.2 23.2 .208 138
2019 05 25 16  16 34 47.235   +17 17 28.94  .13379 1.1203 141.2 23.2 .212 139
2019 05 25 17  16 34 48.565   +17 17 24.49  .13390 1.1204 141.2 23.2 .216 140
2019 05 25 18  16 34 49.891   +17 17 19.92  .13402 1.1205 141.2 23.2 .220 141
2019 05 25 19  16 34 51.213   +17 17 15.23  .13414 1.1206 141.2 23.2 .224 141
2019 05 25 20  16 34 52.530   +17 17 10.43  .13426 1.1207 141.2 23.2 .228 142
2019 05 25 21  16 34 53.843   +17 17 05.51  .13438 1.1208 141.2 23.2 .232 143
2019 05 25 22  16 34 55.153   +17 17 00.48  .13449 1.1209 141.2 23.2 .236 143
2019 05 25 23  16 34 56.458   +17 16 55.33  .13461 1.1210 141.2 23.2 .240 144
2019 05 26 00  16 34 57.759   +17 16 50.07  .13473 1.1211 141.2 23.2 .245 145
2019 05 26 01  16 34 59.056   +17 16 44.69  .13485 1.1212 141.2 23.2 .249 145
2019 05 26 02  16 35 00.349   +17 16 39.20  .13497 1.1213 141.2 23.2 .253 146
2019 05 26 03  16 35 01.638   +17 16 33.60  .13508 1.1214 141.2 23.3 .258 147
2019 05 26 04  16 35 02.923   +17 16 27.88  .13520 1.1215 141.2 23.3 .262 147
2019 05 26 05  16 35 04.204   +17 16 22.05  .13532 1.1216 141.2 23.3 .267 148
2019 05 26 06  16 35 05.480   +17 16 16.11  .13544 1.1217 141.2 23.3 .272 148
2019 05 26 07  16 35 06.754   +17 16 10.05  .13556 1.1218 141.2 23.3 .276 149
2019 05 26 08  16 35 08.023   +17 16 03.88  .13568 1.1220 141.2 23.3 .281 149
2019 05 26 09  16 35 09.288   +17 15 57.60  .13580 1.1221 141.2 23.3 .286 150
2019 05 26 10  16 35 10.549   +17 15 51.20  .13592 1.1222 141.2 23.3 .291 150
2019 05 26 11  16 35 11.806   +17 15 44.69  .13603 1.1223 141.2 23.3 .295 151
2019 05 26 12  16 35 13.060   +17 15 38.07  .13615 1.1224 141.2 23.3 .300 151
2019 05 26 13  16 35 14.310   +17 15 31.34  .13627 1.1225 141.2 23.3 .305 152
2019 05 26 14  16 35 15.555   +17 15 24.50  .13639 1.1226 141.2 23.3 .310 152